User: anonymous   Login
Location: Home
(42.5358°N, 72.7383°W)
Time: 01:35:27
(UTC-05:00)
Language:

EO-88 - Orbit

View from above orbital plane
View from above orbital plane
View from above satellite
View from above satellite

Ground track
Ground track

The orbit data is extracted from the following two-line orbital elements,

1 42017U 17008BX  22027.11321397  .00006871  00000-0  23687-3 0  9991
2 42017  97.2901  95.6275 0006552  45.3808 314.7966 15.30299511275437
Epoch (UTC): 27 January 2022 02:43:01
Eccentricity: 0.0006552
inclination: 97.2901°
perigee height: 470 km
apogee height: 479 km
right ascension of ascending node: 95.6275°
argument of perigee: 45.3808°
revolutions per day: 15.30299511
mean anomaly at epoch: 314.7966°
orbit number at epoch: 27543

The dashed part of the orbit path shows where the satellite is in the earth's shadow,  

DLR